Weather in Gorshki

Russia / Perm Krai     57°56′24″N   55°44′36″E
temp.,
°C
wind,
m/s
gust,
m/s
humid.,
%
clouds,
%
prec.,
mm/h
press.,
hPa
HPBL,
m
7 march, sun
sun723:00−17wsw239684 0.1 101051
02:00−19wsw129887 0.0 101020
05:00−17sw129791 0.1 101029
08:00−18wsw119889 0.1 101036
11:00−14wsw128991 0.1 1009330
14:00−11wsw2280100 0.1 1008735
17:00−10sw1382100 0.1 1007661
20:00−14ssw2293100 0.1 100724
8 march, mon
mon823:00−17ssw229562 0.1 100730
02:00−18sse229874 0.0 100625
05:00−18ese229778 0.0 100449
08:00−16ese3795100 0.1 1002270
11:00−13se4891100 0.7 1000581
14:00−9se4787100 0.3 997758
17:00−7ese4893100 0.8 994584
20:00−6ssw41091100 1.6 994803
9 march, tue
tue923:00−10ssw259499 1.6 995120
02:00−12wsw369689 0.0 998135
05:00−15wsw249794 0.1 100087
08:00−14sw239797 0.3 100284
11:00−11w129097 0.3 1002314
14:00−8wnw1283100 0.1 1003651
17:00−9nw3589100 0.3 1005594
20:00−13nnw379499 0.2 1007339
10 march, wed
wed1023:00−19nnw249693 0.2 1010102
02:00−24nnw229654 0.0 101129
05:00−27nnw229627 0.0 101225
08:00−30nnw22960 0.0 101328
11:00−25n35870 0.0 1014389
14:00−20nnw36810 0.0 1014557
17:00−18nnw36820 0.0 1013666
20:00−23wnw229120 0.0 101420
11 march, thu
thu1123:00−25w229512 0.0 101521
02:00−25wsw239763 0.0 101466
05:00−24wsw379679 0.0 1014192
08:00−22wsw3895100 0.0 1013323
11:00−19wsw3693100 0.3 1013457
14:00−16wsw3689100 0.1 1013498
17:00−14wsw4892100 0.2 1013628
20:00−14wsw3992100 0.1 1014299